Wind_Speed
28 27 23 22 25 20 24 22 19 19 18 16 19 19 17 16 15 14 14 17 17 18 20 21 22 21 19 20 23 24 24 25
27 26 27 27 25 29 28 22 20 17 19 19 16 19 20 18 17 16 18 19 20 22 23 26 28 27 27 26 25 25 25 25
26 28 28 29 31 31 26 22 19 18 22 21 17 18 20 22 21 23 23 23 25 25 26 24 26 29 33 31 28 30 30 30
28 30 30 29 31 32 26 21 17 19 23 23 23 22 18 20 22 25 24 26 25 26 26 25 27 27 30 30 30 29 29 29
26 30 31 29 30 30 29 26 16 19 23 26 25 22 18 20 19 25 27 28 27 26 25 27 28 33 29 27 26 25 25 25
30 30 32 31 30 31 29 28 25 21 23 26 27 26 24 22 19 16 20 23 26 26 28 31 33 34 32 31 27 26 29 29
31 30 30 31 32 32 32 29 28 26 22 25 28 27 28 28 26 24 24 26 28 28 28 31 32 33 34 37 31 29 29 26
30 29 30 32 32 34 34 34 29 28 27 25 28 28 29 31 29 27 30 32 32 29 32 33 33 35 36 31 30 31 34 30
32 28 29 32 34 35 35 35 34 33 31 27 28 30 28 29 32 33 32 32 36 32 32 34 37 36 32 27 33 36 37 32
32 31 30 31 33 36 37 37 36 37 34 30 28 30 28 28 26 30 34 36 36 35 35 35 35 34 30 32 33 32 28 29
39 35 31 35 34 36 38 40 37 37 37 33 32 31 28 30 29 32 33 34 34 36 33 32 33 30 28 28 25 26 29 23
40 38 39 34 36 37 38 43 40 38 38 36 32 31 28 31 31 34 35 34 32 33 33 31 28 27 28 26 24 26 29 32
41 40 40 41 40 39 37 42 42 39 40 37 38 33 31 34 34 36 38 38 34 31 30 28 22 22 24 24 25 29 32 34
38 41 38 41 42 40 37 39 43 42 42 37 40 37 34 36 34 39 39 38 40 35 31 32 30 25 24 26 28 30 34 37
49 42 41 40 41 39 37 39 43 44 43 42 40 40 37 36 37 36 38 39 40 40 39 36 33 34 31 32 34 40 44 48
46 49 45 43 45 45 40 40 45 49 43 43 43 42 39 37 39 37 38 40 42 40 42 42 42 40 43 41 43 42 46 50
54 52 53 50 44 47 45 44 46 46 40 41 46 45 42 42 43 40 41 41 43 42 44 46 46 47 46 45 50 50 50 47
55 56 54 55 54 50 47 47 48 47 48 44 44 45 47 46 45 43 41 42 43 46 42 44 47 48 50 51 52 54 56 58
56 57 56 53 53 53 54 52 52 49 48 45 49 49 49 49 48 46 43 45 46 48 47 48 49 51 53 50 52 55 60 61
55 59 58 56 50 51 48 55 54 53 51 49 50 51 50 51 52 49 48 47 48 49 49 49 50 51 50 51 55 55 59 62
Wind_Direction
355 355 353 348 342 340 343 338 336 335 337 326 316 309 315 317 317 311 312 311 305 302 309 310 307 305 302 301 310 313 325 320
358 356 355 349 348 342 341 331 329 331 333 327 323 303 296 299 301 295 296 291 289 292 294 297 302 305 302 301 303 303 309 316
353 353 356 359 359 349 348 339 328 335 335 339 326 325 303 288 289 290 291 290 286 286 294 305 303 296 298 302 301 298 300 304
350 349 351 357 357 1 350 346 330 331 331 331 331 323 317 301 294 286 285 284 282 286 295 302 306 305 301 293 294 294 297 296
347 352 348 353 354 358 357 353 329 323 324 327 327 329 317 315 299 291 291 289 283 281 299 299 293 303 302 295 283 291 291 295
344 346 348 352 354 356 358 355 344 318 322 322 327 327 321 306 306 302 302 301 292 289 284 291 298 301 304 299 287 284 300 301
340 341 346 345 348 355 356 354 345 337 323 318 319 325 324 319 304 290 291 293 289 290 296 297 301 303 304 296 286 285 299 293
322 333 335 338 339 343 347 353 345 339 339 322 313 315 324 322 316 310 300 295 293 286 291 299 294 284 295 290 289 300 300 299
309 318 326 328 330 334 339 340 345 341 338 334 315 309 312 316 320 315 309 302 295 290 284 281 281 287 292 281 287 301 298 289
302 305 313 319 324 327 330 330 334 338 337 334 332 318 303 304 312 314 310 312 311 294 289 287 286 289 296 297 300 301 295 297
296 299 299 305 313 321 326 322 323 328 334 333 330 331 313 305 303 310 310 308 310 304 295 287 288 296 297 301 300 301 302 299
291 289 293 298 301 310 319 317 316 318 325 328 328 329 322 313 302 302 307 310 305 302 299 294 295 297 305 302 295 296 308 306
297 295 295 291 296 299 307 310 311 309 313 320 324 324 322 321 303 298 301 306 309 302 304 296 297 306 302 307 299 292 304 301
295 290 291 289 291 292 294 301 305 305 304 311 317 321 318 323 313 299 296 304 304 299 299 301 294 297 298 299 299 303 300 302
286 289 292 291 288 291 290 294 299 304 303 303 309 315 315 318 318 302 295 297 303 297 296 295 289 291 294 294 298 301 307 305
280 287 289 289 286 286 288 285 293 299 302 298 301 308 313 305 312 312 303 293 299 300 297 296 294 293 295 298 300 302 301 300
286 283 286 288 291 289 289 287 289 293 298 300 298 301 306 309 307 311 309 293 294 299 296 295 296 292 297 300 298 298 299 295
277 281 282 291 293 293 298 294 292 289 293 297 296 295 301 303 307 306 310 304 294 293 295 297 298 297 298 299 299 300 301 301
280 279 282 284 288 294 295 296 290 289 290 291 292 293 296 299 304 304 302 303 301 297 296 294 296 292 291 295 296 298 299 303
281 279 279 281 282 286 291 293 293 288 290 290 290 289 292 295 296 300 301 300 302 303 296 293 295 294 290 293 297 298 297 299
Height
10840 10837 10835 10832 10830 10826 10823 10819 10817 10815 10813 10812 10811 10811 10810 10810 10809 10808 10807 10805 10803 10801 10799 10798 10797 10796 10794 10792 10791 10789 10789 10786
10840 10837 10835 10831 10828 10824 10820 10817 10815 10813 10812 10810 10809 10807 10807 10808 10807 10806 10805 10803 10801 10799 10798 10797 10795 10793 10791 10789 10788 10786 10785 10783
10839 10836 10834 10830 10826 10822 10819 10816 10814 10813 10811 10808 10806 10805 10803 10803 10803 10802 10800 10799 10797 10796 10796 10794 10792 10790 10787 10786 10784 10781 10780 10778
10839 10836 10832 10829 10825 10821 10818 10815 10813 10812 10810 10807 10804 10802 10801 10799 10798 10797 10796 10794 10793 10792 10791 10790 10788 10786 10785 10783 10781 10778 10775 10774
10839 10835 10831 10828 10824 10821 10817 10815 10812 10810 10808 10805 10802 10799 10798 10796 10794 10793 10791 10789 10788 10787 10787 10785 10782 10781 10779 10777 10776 10775 10772 10770
10836 10833 10829 10826 10823 10820 10817 10813 10810 10808 10806 10803 10800 10798 10796 10793 10791 10789 10787 10785 10783 10781 10780 10777 10776 10774 10771 10771 10770 10769 10767 10764
10834 10831 10827 10825 10821 10818 10815 10812 10808 10806 10804 10802 10799 10795 10792 10790 10788 10786 10783 10780 10778 10776 10773 10771 10769 10767 10764 10763 10764 10763 10760 10758
10831 10828 10824 10821 10819 10815 10813 10810 10807 10803 10802 10799 10796 10793 10789 10784 10782 10781 10779 10776 10772 10770 10767 10764 10763 10761 10759 10756 10755 10753 10750 10748
10826 10825 10821 10817 10815 10813 10810 10808 10804 10800 10798 10796 10793 10790 10787 10782 10777 10773 10770 10768 10765 10763 10763 10760 10756 10755 10752 10751 10749 10747 10743 10741
10823 10819 10817 10814 10811 10808 10806 10804 10802 10798 10794 10791 10789 10786 10784 10781 10777 10772 10769 10765 10761 10759 10756 10754 10750 10748 10746 10745 10743 10739 10737 10735
10813 10814 10814 10810 10807 10804 10802 10798 10797 10794 10790 10785 10782 10779 10776 10775 10772 10768 10764 10762 10757 10753 10750 10747 10744 10743 10740 10739 10736 10733 10731 10729
10810 10808 10806 10808 10804 10799 10797 10793 10788 10786 10785 10781 10778 10774 10771 10768 10766 10763 10760 10757 10754 10749 10745 10742 10739 10736 10734 10732 10730 10726 10724 10723
10801 10803 10803 10799 10799 10796 10792 10789 10785 10781 10778 10776 10772 10768 10765 10762 10759 10756 10753 10750 10748 10744 10740 10737 10734 10731 10728 10726 10723 10720 10717 10714
10799 10794 10794 10792 10791 10789 10786 10784 10780 10776 10772 10769 10766 10761 10757 10756 10752 10748 10745 10743 10741 10739 10736 10732 10727 10724 10721 10719 10717 10714 10710 10706
10787 10786 10784 10784 10783 10781 10779 10776 10771 10769 10766 10762 10758 10755 10751 10748 10745 10741 10738 10736 10733 10731 10729 10726 10723 10718 10715 10712 10708 10703 10697 10692
10780 10777 10775 10774 10773 10772 10772 10769 10763 10760 10758 10755 10751 10748 10745 10742 10737 10734 10730 10727 10725 10722 10720 10717 10715 10711 10708 10704 10699 10695 10690 10681
10770 10769 10764 10763 10764 10760 10761 10759 10755 10750 10748 10746 10744 10739 10736 10733 10728 10726 10722 10719 10716 10713 10710 10707 10705 10703 10699 10695 10690 10685 10681 10677
10757 10757 10754 10749 10749 10750 10748 10748 10744 10741 10739 10736 10733 10731 10727 10723 10719 10716 10713 10709 10707 10704 10701 10697 10694 10690 10687 10683 10678 10673 10669 10667
10747 10745 10742 10741 10739 10738 10739 10736 10732 10730 10727 10725 10722 10719 10717 10713 10710 10706 10703 10699 10696 10692 10689 10686 10682 10678 10674 10670 10666 10661 10655 10651
10730 10729 10731 10731 10731 10730 10729 10726 10720 10717 10715 10713 10711 10707 10705 10702 10700 10697 10693 10689 10685 10682 10678 10674 10671 10667 10662 10657 10653 10647 10642 10638